DW3256 Weather Reports


Display with metric or nautical units.
time (UTC)temp
F
wind
direction
speed
MPH
gust
MPH
rain 1hr
in
rain 24hr
in
rain mn
in
humidity
%
barometer
mb
20260510103819 51 259 1.0 3.0 0.00 0.00 0.00 89 1014.0
20260510103322 51 110 1.0 2.0 0.00 0.00 0.00 89 1013.9
20260510102819 51 250 0.0 2.0 0.00 0.00 0.00 89 1013.9
20260510102318 51 251 0.0 2.0 0.00 0.00 0.00 89 1013.8
20260510102142 51 251 1.0 3.0 0.00 0.00 0.00 89 1013.8
20260510101315 51 251 1.0 5.0 0.00 0.00 0.00 88 1013.8
20260510100816 51 270 0.0 5.0 0.00 0.00 0.00 88 1013.7
20260510100319 51 273 0.0 1.0 0.00 0.00 0.00 89 1013.6
20260510095815 51 273 0.0 2.0 0.00 0.00 0.00 89 1013.5
20260510095316 51 273 0.0 3.0 0.00 0.00 0.00 88 1013.5
20260510094813 51 273 0.0 3.0 0.00 0.00 0.00 89 1013.5
20260510094316 51 273 0.0 2.0 0.00 0.00 0.00 89 1013.6
20260510093810 51 273 0.0 0.0 0.00 0.00 0.00 88 1013.7
20260510093310 51 273 0.0 2.0 0.00 0.00 0.00 88 1013.7
20260510092811 51 273 0.0 2.0 0.00 0.00 0.00 88 1013.6
20260510092309 51 273 1.0 3.0 0.00 0.00 0.00 88 1013.6
20260510092119 51 273 1.0 3.0 0.00 0.00 0.00 88 1013.6
20260510091306 51 273 0.0 2.0 0.00 0.00 0.00 87 1013.5
20260510090800 51 272 0.0 2.0 0.00 0.00 0.00 87 1013.5
20260510090255 51 272 0.0 2.0 0.00 0.00 0.00 86 1013.3
20260510085754 52 272 0.0 2.0 0.00 0.00 0.00 86 1013.3
20260510085241 52 272 0.0 2.0 0.00 0.00 0.00 86 1013.2
20260510084735 52 272 0.0 2.0 0.00 0.00 0.00 87 1013.2
20260510084236 52 270 0.0 3.0 0.00 0.00 0.00 86 1013.2
20260510083732 52 270 1.0 3.0 0.00 0.00 0.00 86 1013.1
20260510083230 52 266 1.0 3.0 0.00 0.00 0.00 86 1013.0
20260510082729 52 266 1.0 3.0 0.00 0.00 0.00 86 1013.0
20260510082233 51 10 1.0 3.0 0.00 0.00 0.00 86 1013.0
20260510081729 51 297 0.0 3.0 0.00 0.00 0.00 86 1013.0
20260510081231 52 342 0.0 2.0 0.00 0.00 0.00 86 1012.9
20260510081059 52 343 1.0 3.0 0.00 0.00 0.00 86 1012.9
20260510080231 52 344 1.0 3.0 0.00 0.00 0.00 86 1012.9
20260510075730 52 269 1.0 4.0 0.00 0.00 0.00 85 1012.8
20260510075233 52 269 1.0 4.0 0.00 0.00 0.00 85 1012.8
20260510074729 52 300 0.0 3.0 0.00 0.00 0.00 85 1012.7
20260510074229 52 349 0.0 3.0 0.00 0.00 0.00 85 1012.7
20260510073732 52 342 1.0 3.0 0.00 0.00 0.00 85 1012.8
20260510073232 52 293 0.0 2.0 0.00 0.00 0.00 85 1012.8
20260510072730 52 293 0.0 0.0 0.00 0.00 0.00 85 1012.7
20260510072617 52 293 0.0 2.0 0.00 0.00 0.00 85 1012.6
20260510071729 52 293 0.0 2.0 0.00 0.00 0.00 84 1012.6
20260510071230 52 293 1.0 3.0 0.00 0.00 0.00 84 1012.5
20260510070731 52 293 1.0 3.0 0.00 0.00 0.00 83 1012.5
20260510070451 53 304 1.0 3.0 0.00 0.00 0.00 83 1012.4
20260510065731 53 330 0.0 3.0 0.00 0.00 0.00 83 1012.3
20260510065233 53 330 0.0 3.0 0.00 0.00 0.00 83 1012.4
20260510064733 53 335 0.0 2.0 0.00 0.00 0.00 83 1012.4
20260510064229 53 335 1.0 4.0 0.00 0.00 0.00 82 1012.5
20260510063729 53 261 1.0 4.0 0.00 0.00 0.00 82 1012.6
20260510063230 54 261 0.0 4.0 0.00 0.00 0.00 82 1012.6
20260510063047 53 304 0.0 2.0 0.00 0.00 0.00 82 1012.6
20260510062229 53 298 0.0 2.0 0.00 0.00 0.00 82 1012.5
20260510061730 53 278 0.0 2.0 0.00 0.00 0.00 82 1012.5
20260510061230 53 277 0.0 3.0 0.00 0.00 0.00 82 1012.4
20260510060729 53 277 1.0 3.0 0.00 0.00 0.00 82 1012.4
20260510060232 53 273 1.0 3.0 0.00 0.00 0.00 81 1012.5
20260510055730 53 272 1.0 4.0 0.00 0.00 0.00 81 1012.6
20260510055233 54 259 1.0 4.0 0.00 0.00 0.00 81 1012.6
20260510054730 54 71 1.0 3.0 0.00 0.00 0.00 80 1012.5
20260510054241 54 71 1.0 3.0 0.00 0.00 0.00 81 1012.5
20260510054218 54 345 1.0 2.0 0.00 0.00 0.00 80 1012.5
20260510053820 54 345 0.0 2.0 0.00 0.00 0.00 80 1012.5
20260510052736 54 19 1.0 2.0 0.00 0.00 0.00 80 1012.6
20260510052228 55 286 1.0 2.0 0.00 0.00 0.00 79 1012.5
20260510051727 55 287 1.0 4.0 0.00 0.00 0.00 78 1012.5
20260510051229 56 286 1.0 4.0 0.00 0.00 0.00 78 1012.6
20260510050730 56 19 0.0 2.0 0.00 0.00 0.00 77 1012.5
20260510050531 56 37 0.0 2.0 0.00 0.00 0.00 77 1012.5
20260510045724 57 37 0.0 3.0 0.00 0.00 0.00 76 1012.6
20260510045236 57 36 0.0 3.0 0.00 0.00 0.00 76 1012.5
20260510044720 57 37 0.0 2.0 0.00 0.00 0.00 76 1012.4
20260510044221 57 37 1.0 2.0 0.00 0.00 0.00 75 1012.5
20260510044034 57 37 1.0 2.0 0.00 0.00 0.00 75 1012.6
20260510043221 57 37 1.0 2.0 0.00 0.00 0.00 75 1012.6
20260510043101 58 37 1.0 2.0 0.00 0.00 0.00 74 1012.7
20260510042215 58 37 1.0 2.0 0.00 0.00 0.00 74 1012.6
20260510041711 58 37 1.0 2.0 0.00 0.00 0.00 74 1012.5
20260510041211 58 43 1.0 2.0 0.00 0.00 0.00 74 1012.4
20260510040716 58 44 1.0 2.0 0.00 0.00 0.00 73 1012.5
20260510040507 58 71 1.0 2.0 0.00 0.00 0.00 74 1012.5
20260510035709 58 14 1.0 2.0 0.00 0.00 0.00 74 1012.5
20260510035207 58 314 1.0 3.0 0.00 0.00 0.00 74 1012.5
20260510034708 58 314 1.0 3.0 0.00 0.00 0.00 74 1012.6
20260510034207 58 320 1.0 3.0 0.00 0.00 0.00 72 1012.5
20260510033701 58 320 1.0 3.0 0.00 0.00 0.00 73 1012.6
20260510033201 59 3 1.0 3.0 0.00 0.00 0.00 72 1012.5
20260510032703 59 251 1.0 4.0 0.00 0.00 0.00 72 1012.4
20260510032202 59 29 1.0 4.0 0.00 0.00 0.00 72 1012.4
20260510031701 59 326 1.0 3.0 0.00 0.00 0.00 72 1012.3
20260510031201 58 306 1.0 3.0 0.00 0.00 0.00 73 1012.4
20260510030718 58 300 1.0 2.0 0.00 0.00 0.00 74 1012.5
20260510030708 58 304 1.0 3.0 0.00 0.00 0.00 74 1012.4
20260510030307 58 301 1.0 2.0 0.00 0.00 0.00 74 1012.5
20260510025206 58 301 1.0 2.0 0.00 0.00 0.00 72 1012.4
20260510024701 58 300 0.0 2.0 0.00 0.00 0.00 73 1012.4
20260510024508 58 300 1.0 2.0 0.00 0.00 0.00 72 1012.3
20260510023701 58 300 1.0 2.0 0.00 0.00 0.00 72 1012.3
20260510023512 59 299 1.0 3.0 0.00 0.00 0.00 71 1012.3
20260510022704 59 299 1.0 3.0 0.00 0.00 0.00 70 1012.2
20260510022205 59 299 1.0 2.0 0.00 0.00 0.00 70 1012.1
20260510021701 59 299 1.0 2.0 0.00 0.00 0.00 70 1012.1
20260510021201 60 299 0.0 2.0 0.00 0.00 0.00 70 1012.0
20260510020702 60 299 0.0 2.0 0.00 0.00 0.00 69 1012.0
20260510020201 60 299 0.0 2.0 0.00 0.00 0.00 69 1011.9
20260510015701 60 299 1.0 2.0 0.00 0.00 0.00 68 1011.8
20260510015201 60 299 1.0 2.0 0.00 0.00 0.00 68 1011.6
20260510014707 60 299 0.0 2.0 0.00 0.00 0.00 68 1011.5
20260510014530 60 295 1.0 2.0 0.00 0.00 0.00 68 1011.4
20260510013704 61 295 1.0 3.0 0.00 0.00 0.00 66 1011.3
20260510013202 61 295 1.0 3.0 0.00 0.00 0.00 66 1011.2
20260510012700 61 64 1.0 2.0 0.00 0.00 0.00 65 1010.9
20260510012452 62 276 0.0 1.0 0.00 0.00 0.00 66 1011.1
20260510011700 62 274 0.0 5.0 0.00 0.00 0.00 66 1010.8
20260510011202 62 274 1.0 5.0 0.00 0.00 0.00 65 1010.8
20260510010705 62 351 1.0 2.0 0.00 0.00 0.00 65 1010.7
20260510010201 63 351 1.0 2.0 0.00 0.00 0.00 65 1010.7
20260510005702 63 320 1.0 2.0 0.00 0.00 0.00 62 1010.6
20260510005201 63 317 1.0 3.0 0.00 0.00 0.00 63 1010.7
20260510005024 64 316 1.0 3.0 0.00 0.00 0.00 62 1010.7
20260510004202 64 298 1.0 3.0 0.00 0.00 0.00 60 1010.7
20260510003703 65 67 1.0 3.0 0.00 0.00 0.00 61 1010.7
20260510003203 65 11 1.0 2.0 0.00 0.00 0.00 60 1010.7
20260510003033 66 58 1.0 2.0 0.00 0.00 0.00 59 1010.6
20260510002201 66 60 1.0 2.0 0.00 0.00 0.00 59 1010.5
20260510001912 67 103 1.0 4.0 0.00 0.00 0.00 56 1010.3
20260510001829 67 103 1.0 4.0 0.00 0.00 0.00 58 1010.4
20260510000702 67 104 1.0 4.0 0.00 0.00 0.00 55 1010.2
20260510000203 68 357 1.0 3.0 0.00 0.00 0.00 55 1010.1
20260509235703 68 85 1.0 2.0 0.00 0.00 0.00 54 1010.0
20260509235205 69 78 1.0 3.0 0.00 0.00 0.00 53 1009.9
20260509235022 69 70 1.0 3.0 0.00 0.00 0.00 52 1009.8
20260509234205 70 357 2.0 5.0 0.00 0.00 0.00 52 1009.8
20260509233701 71 354 2.0 5.0 0.00 0.00 0.00 51 1009.6
20260509233201 71 258 3.0 11.0 0.00 0.00 0.00 47 1009.7
20260509232700 71 255 2.0 11.0 0.00 0.00 0.00 47 1009.7
20260509232459 71 180 2.0 6.0 0.00 0.00 0.00 47 1009.6
20260509232019 71 296 2.0 4.0 0.00 0.00 0.00 49 1009.7
20260509231202 71 125 2.0 7.0 0.00 0.00 0.00 48 1009.5
20260509230702 71 268 2.0 7.0 0.00 0.00 0.00 48 1009.5
20260509230201 72 127 2.0 6.0 0.00 0.00 0.00 48 1009.4
20260509225705 72 301 2.0 4.0 0.00 0.00 0.00 47 1009.4
20260509225202 72 301 2.0 7.0 0.00 0.00 0.00 48 1009.4
20260509224703 72 161 2.0 7.0 0.00 0.00 0.00 48 1009.4
20260509224204 73 260 2.0 5.0 0.00 0.00 0.00 47 1009.5
20260509223705 73 231 3.0 8.0 0.00 0.00 0.00 46 1009.4
20260509223200 73 283 4.0 8.0 0.00 0.00 0.00 45 1009.4
20260509222701 73 264 4.0 10.0 0.00 0.00 0.00 46 1009.3
20260509222538 73 123 3.0 10.0 0.00 0.00 0.00 45 1009.3
20260509221701 73 280 2.0 8.0 0.00 0.00 0.00 47 1009.3
20260509221202 73 88 4.0 8.0 0.00 0.00 0.00 46 1009.3
20260509220704 73 278 4.0 10.0 0.00 0.00 0.00 46 1009.3
20260509220201 73 120 2.0 10.0 0.00 0.00 0.00 46 1009.3
20260509215700 73 353 2.0 6.0 0.00 0.00 0.00 47 1009.2
20260509215203 73 297 2.0 6.0 0.00 0.00 0.00 47 1009.2
20260509214704 73 202 2.0 6.0 0.00 0.00 0.00 47 1009.2
20260509214202 74 333 2.0 4.0 0.00 0.00 0.00 51 1009.1
20260509213701 74 301 1.0 4.0 0.00 0.00 0.00 46 1008.9
20260509213158 74 80 1.0 4.0 0.00 0.00 0.00 45 1008.9
20260509212651 74 251 1.0 3.0 0.00 0.00 0.00 44 1009.0
20260509212145 74 183 1.0 4.0 0.00 0.00 0.00 43 1008.9
20260509211644 73 287 1.0 4.0 0.00 0.00 0.00 44 1008.8
20260509211143 73 278 1.0 7.0 0.00 0.00 0.00 47 1008.7
20260509210643 73 279 2.0 7.0 0.00 0.00 0.00 45 1008.7
20260509210144 73 274 1.0 4.0 0.00 0.00 0.00 45 1008.5
20260509205950 73 247 0.0 1.0 0.00 0.00 0.00 50 1008.5
20260509205143 73 247 1.0 3.0 0.00 0.00 0.00 48 1008.7
20260509204639 73 247 1.0 3.0 0.00 0.00 0.00 46 1008.5
20260509204138 73 166 1.0 4.0 0.00 0.00 0.00 48 1008.5
20260509203636 73 278 2.0 4.0 0.00 0.00 0.00 49 1008.5
20260509203136 73 277 3.0 4.0 0.00 0.00 0.00 47 1008.5
20260509202635 73 270 2.0 6.0 0.00 0.00 0.00 46 1008.4
20260509202134 73 283 1.0 6.0 0.00 0.00 0.00 46 1008.4
20260509201632 73 302 0.0 3.0 0.00 0.00 0.00 49 1008.5
20260509201136 74 347 0.0 1.0 0.00 0.00 0.00 47 1008.4
20260509200631 74 347 1.0 6.0 0.00 0.00 0.00 45 1008.4
20260509200435 74 347 2.0 6.0 0.00 0.00 0.00 45 1008.4
20260509195628 74 293 2.0 3.0 0.00 0.00 0.00 47 1008.5
20260509195456 74 299 2.0 4.0 0.00 0.00 0.00 45 1008.4
20260509194633 74 24 2.0 4.0 0.00 0.00 0.00 47 1008.5
20260509194128 74 312 1.0 3.0 0.00 0.00 0.00 46 1008.5
20260509193619 74 37 1.0 4.0 0.00 0.00 0.00 45 1008.5
20260509193113 74 239 2.0 6.0 0.00 0.00 0.00 44 1008.5
20260509192614 74 147 3.0 7.0 0.00 0.00 0.00 44 1008.3
20260509192559 74 291 2.0 8.0 0.00 0.00 0.00 46 1008.5
20260509192555 74 276 3.0 8.0 0.00 0.00 0.00 45 1008.4
20260509191113 73 285 2.0 4.0 0.00 0.00 0.00 48 1008.7
20260509190612 72 270 2.0 4.0 0.00 0.00 0.00 48 1008.7
20260509190113 72 324 1.0 4.0 0.00 0.00 0.00 49 1008.9
20260509185613 72 328 2.0 4.0 0.00 0.00 0.00 50 1008.8
20260509185111 72 277 5.0 11.0 0.00 0.00 0.00 46 1008.9
20260509184611 73 293 3.0 11.0 0.00 0.00 0.00 46 1008.9
20260509184110 74 285 2.0 8.0 0.00 0.00 0.00 48 1008.7
20260509183611 73 315 3.0 9.0 0.00 0.00 0.00 50 1008.9
20260509183107 73 56 3.0 9.0 0.00 0.00 0.00 48 1008.8
20260509182953 73 319 4.0 8.0 0.00 0.00 0.00 47 1008.9
20260509182106 74 293 4.0 8.0 0.00 0.00 0.00 46 1009.0
20260509181907 73 276 4.0 9.0 0.00 0.00 0.00 48 1009.2
20260509181106 73 303 5.0 9.0 0.00 0.00 0.00 47 1009.2
20260509180602 73 271 5.0 11.0 0.00 0.00 0.00 46 1009.2
20260509180105 74 285 4.0 11.0 0.00 0.00 0.00 45 1009.3
20260509175559 74 280 5.0 9.0 0.00 0.00 0.00 46 1009.3
20260509175306 73 306 3.0 7.0 0.00 0.00 0.00 45 1009.2
20260509175210 74 299 4.0 9.0 0.00 0.00 0.00 45 1009.3
20260509174043 73 278 4.0 11.0 0.00 0.00 0.00 47 1009.4
20260509173543 73 299 5.0 11.0 0.00 0.00 0.00 44 1009.4
20260509173042 73 294 3.0 8.0 0.00 0.00 0.00 45 1009.3
20260509172541 73 286 2.0 7.0 0.00 0.00 0.00 44 1009.3
20260509172044 73 56 3.0 7.0 0.00 0.00 0.00 46 1009.4
20260509171614 73 292 4.0 9.0 0.00 0.00 0.00 45 1009.8
20260509171605 72 311 4.0 9.0 0.00 0.00 0.00 43 1009.7
20260509171553 73 283 4.0 9.0 0.00 0.00 0.00 45 1009.5
20260509170040 72 297 4.0 9.0 0.00 0.00 0.00 49 1009.9
20260509165917 72 299 5.0 10.0 0.00 0.00 0.00 50 1009.9
20260509165040 72 266 5.0 10.0 0.00 0.00 0.00 50 1010.0
20260509164538 72 285 3.0 8.0 0.00 0.00 0.00 53 1010.2
20260509164037 71 292 2.0 6.0 0.00 0.00 0.00 58 1010.1
20260509163539 70 283 2.0 4.0 0.00 0.00 0.00 61 1010.3
20260509163036 69 287 1.0 3.0 0.00 0.00 0.00 63 1010.3
20260509162837 68 77 1.0 2.0 0.00 0.00 0.00 65 1010.2
20260509162036 67 177 1.0 2.0 0.00 0.00 0.00 66 1010.3
20260509161532 67 46 1.0 3.0 0.00 0.00 0.00 66 1010.3
20260509161035 67 75 1.0 3.0 0.00 0.00 0.00 65 1010.4
20260509160531 67 63 1.0 2.0 0.00 0.00 0.00 66 1010.4
20260509160032 67 63 1.0 3.0 0.00 0.00 0.00 66 1010.3
20260509155539 67 63 1.0 3.0 0.00 0.00 0.00 65 1010.2
20260509155036 67 90 1.0 3.0 0.00 0.00 0.00 67 1010.0
20260509154541 67 89 1.0 3.0 0.00 0.00 0.00 67 1010.1
20260509154037 66 301 1.0 3.0 0.00 0.00 0.00 66 1010.2
20260509153852 66 301 1.0 4.0 0.00 0.00 0.00 62 1010.4
20260509153033 66 89 2.0 4.0 0.00 0.00 0.00 61 1010.5
20260509152902 66 289 2.0 4.0 0.00 0.00 0.00 63 1010.8
20260509152030 66 276 1.0 4.0 0.00 0.00 0.00 64 1010.9
20260509151529 66 60 1.0 4.0 0.00 0.00 0.00 63 1010.7
20260509151030 65 249 1.0 4.0 0.00 0.00 0.00 65 1010.7
20260509150531 65 111 1.0 4.0 0.00 0.00 0.00 64 1010.7
20260509150029 64 287 1.0 4.0 0.00 0.00 0.00 67 1010.7
20260509145529 64 283 1.0 4.0 0.00 0.00 0.00 66 1010.7
20260509145029 64 283 1.0 4.0 0.00 0.00 0.00 68 1010.6
20260509144031 63 295 0.0 3.0 0.00 0.00 0.00 69 1010.9
20260509143857 63 298 0.0 2.0 0.00 0.00 0.00 69 1011.1
20260509143029 63 287 1.0 3.0 0.00 0.00 0.00 70 1011.1
20260509142532 62 296 1.0 4.0 0.00 0.00 0.00 70 1011.2
20260509142029 62 296 1.0 4.0 0.00 0.00 0.00 69 1011.2
20260509141530 62 293 1.0 3.0 0.00 0.00 0.00 69 1011.1
20260509141029 62 293 1.0 3.0 0.00 0.00 0.00 70 1011.1
20260509140909 61 299 1.0 3.0 0.00 0.00 0.00 71 1011.1
20260509140028 61 277 1.0 2.0 0.00 0.00 0.00 71 1010.9
20260509135854 60 314 1.0 2.0 0.00 0.00 0.00 71 1011.2
20260509135032 60 294 1.0 3.0 0.00 0.00 0.00 71 1010.9
20260509134530 59 291 1.0 3.0 0.00 0.00 0.00 73 1010.9
20260509134033 59 244 0.0 3.0 0.00 0.00 0.00 74 1011.1
20260509133531 58 316 0.0 1.0 0.00 0.00 0.00 75 1010.8
20260509133026 58 316 0.0 2.0 0.00 0.00 0.00 75 1011.2
20260509132522 57 314 0.0 2.0 0.00 0.00 0.00 76 1011.6
20260509132020 57 330 0.0 2.0 0.00 0.00 0.00 76 1011.7
20260509131519 57 331 0.0 2.0 0.00 0.00 0.00 75 1011.9
20260509131352 56 10 0.0 2.0 0.00 0.00 0.00 76 1011.9
20260509130521 56 12 0.0 1.0 0.00 0.00 0.00 77 1011.9
20260509130019 56 29 0.0 1.0 0.00 0.00 0.00 76 1011.9
20260509125517 56 29 0.0 4.0 0.00 0.00 0.00 76 1011.9
20260509125013 55 29 0.0 4.0 0.00 0.00 0.00 76 1012.0
20260509124815 55 325 0.0 3.0 0.00 0.00 0.00 77 1012.1
20260509124012 55 320 1.0 3.0 0.00 0.00 0.00 77 1012.2
20260509123509 54 326 1.0 2.0 0.00 0.00 0.00 77 1012.1
20260509123009 54 326 2.0 3.0 0.00 0.00 0.00 78 1012.1
20260509122505 54 326 2.0 3.0 0.00 0.00 0.00 80 1012.2
20260509122003 53 342 1.0 2.0 0.00 0.00 0.00 80 1012.2
20260509121503 53 12 0.0 1.0 0.00 0.00 0.00 84 1012.1
20260509121001 52 14 0.0 0.0 0.00 0.00 0.00 84 1012.2
20260509120503 52 14 0.0 0.0 0.00 0.00 0.00 82 1012.2
20260509120003 51 14 0.0 0.0 0.00 0.00 0.00 82 1012.1
20260509115505 51 14 0.0 0.0 0.00 0.00 0.00 83 1012.1
20260509115001 50 14 0.0 0.0 0.00 0.00 0.00 83 1012.1
20260509114818 50 14 0.0 0.0 0.00 0.00 0.00 85 1012.1
20260509114003 49 14 0.0 0.0 0.00 0.00 0.00 86 1012.2
20260509113504 49 14 0.0 0.0 0.00 0.00 0.00 86 1012.2
20260509113328 48 14 0.0 0.0 0.00 0.00 0.00 86 1012.1
20260509112503 48 14 0.0 0.0 0.00 0.00 0.00 86 1012.1
20260509112329 48 14 0.0 0.0 0.00 0.00 0.00 86 1012.2
20260509111636 48 14 0.0 0.0 0.00 0.00 0.00 85 1012.0
20260509111604 48 14 0.0 0.0 0.00 0.00 0.00 85 1012.2
20260509110503 48 14 0.0 0.0 0.00 0.00 0.00 85 1012.0
20260509110346 47 14 0.0 0.0 0.00 0.00 0.00 85 1012.0
20260509105823 47 14 0.0 0.0 0.00 0.00 0.00 85 1011.9
20260509105005 47 14 0.0 0.0 0.00 0.00 0.00 85 1011.9
20260509104502 47 14 0.0 0.0 0.00 0.00 0.00 85 1011.9